Time,TemperatureF,DewpointF,PressureIn,WindDirection,WindDirectionDegrees,WindSpeedMPH,WindSpeedGustMPH,Humidity,HourlyPrecipIn,Conditions,Clouds,dailyrainin,SolarRadiationWatts/m^2,SoftwareType,DateUTC
2013-04-19 00:05:00,64.2,54.0,29.70,West,279,0.0,0.0,69,0.00,,,0.00,0,weatherlink.com 1.10,2013-04-19 04:05:00,
2013-04-19 00:20:00,64.5,54.0,29.69,WSW,241,0.0,0.0,69,0.00,,,0.00,0,weatherlink.com 1.10,2013-04-19 04:20:00,
2013-04-19 00:35:00,64.5,54.0,29.70,West,273,0.0,0.0,69,0.00,,,0.00,0,weatherlink.com 1.10,2013-04-19 04:35:00,
2013-04-19 00:50:00,64.5,54.0,29.70,NNW,333,0.0,0.0,69,0.00,,,0.00,0,weatherlink.com 1.10,2013-04-19 04:50:00,
2013-04-19 01:05:00,64.2,54.0,29.70,West,261,0.0,0.0,69,0.00,,,0.00,0,weatherlink.com 1.10,2013-04-19 05:05:00,
2013-04-19 01:20:00,64.0,54.0,29.71,WSW,246,0.0,0.0,70,0.00,,,0.00,0,weatherlink.com 1.10,2013-04-19 05:20:00,
2013-04-19 01:37:00,63.7,54.0,29.70,WNW,284,0.0,0.0,70,0.00,,,0.00,0,weatherlink.com 1.10,2013-04-19 05:37:00,
2013-04-19 01:50:00,63.5,54.0,29.70,West,280,0.0,0.0,70,0.00,,,0.00,0,weatherlink.com 1.10,2013-04-19 05:50:00,
2013-04-19 02:05:00,63.2,54.0,29.70,NNE,23,0.0,0.0,71,0.00,,,0.00,0,weatherlink.com 1.10,2013-04-19 06:05:00,
2013-04-19 02:20:00,63.1,54.0,29.69,SE,138,0.0,0.0,72,0.00,,,0.00,0,weatherlink.com 1.10,2013-04-19 06:20:00,
2013-04-19 02:35:00,63.1,54.0,29.69,ESE,112,0.0,0.0,72,0.00,,,0.00,0,weatherlink.com 1.10,2013-04-19 06:35:00,
2013-04-19 02:50:00,63.1,54.0,29.69,SE,130,0.0,0.0,73,0.00,,,0.00,0,weatherlink.com 1.10,2013-04-19 06:50:00,
2013-04-19 03:05:00,63.1,54.0,29.68,NNW,336,0.0,0.0,73,0.00,,,0.00,0,weatherlink.com 1.10,2013-04-19 07:05:00,
2013-04-19 03:20:00,63.1,54.0,29.68,West,268,0.0,0.0,73,0.00,,,0.00,0,weatherlink.com 1.10,2013-04-19 07:20:00,
2013-04-19 03:35:00,63.2,54.0,29.67,NE,34,0.0,0.0,73,0.00,,,0.00,0,weatherlink.com 1.10,2013-04-19 07:35:00,
2013-04-19 03:50:00,63.3,55.0,29.67,WSW,257,0.0,0.0,73,0.00,,,0.00,0,weatherlink.com 1.10,2013-04-19 07:50:00,
2013-04-19 04:06:00,63.4,55.0,29.67,WSW,252,0.0,0.0,73,0.00,,,0.00,0,weatherlink.com 1.10,2013-04-19 08:06:00,
2013-04-19 04:20:00,63.6,55.0,29.66,NNW,328,0.0,0.0,73,0.00,,,0.00,0,weatherlink.com 1.10,2013-04-19 08:20:00,
2013-04-19 04:36:00,63.9,55.0,29.66,West,271,0.0,0.0,72,0.00,,,0.00,0,weatherlink.com 1.10,2013-04-19 08:36:00,
2013-04-19 04:51:00,63.9,55.0,29.66,North,360,0.0,0.0,72,0.00,,,0.00,0,weatherlink.com 1.10,2013-04-19 08:51:00,
2013-04-19 05:06:00,63.7,55.0,29.66,West,261,0.0,0.0,72,0.00,,,0.00,0,weatherlink.com 1.10,2013-04-19 09:06:00,
2013-04-19 05:21:00,63.8,55.0,29.65,WSW,248,0.0,0.0,72,0.00,,,0.00,0,weatherlink.com 1.10,2013-04-19 09:21:00,
2013-04-19 05:36:00,63.9,55.0,29.64,West,270,0.0,0.0,72,0.00,,,0.00,0,weatherlink.com 1.10,2013-04-19 09:36:00,
2013-04-19 05:51:00,63.8,55.0,29.64,NNW,334,0.0,0.0,72,0.00,,,0.00,0,weatherlink.com 1.10,2013-04-19 09:51:00,
2013-04-19 06:06:00,63.8,55.0,29.64,WSW,240,0.0,0.0,72,0.00,,,0.00,0,weatherlink.com 1.10,2013-04-19 10:06:00,
2013-04-19 06:21:00,64.0,55.0,29.64,NNE,23,0.0,0.0,72,0.00,,,0.00,7,weatherlink.com 1.10,2013-04-19 10:21:00,
2013-04-19 06:36:00,64.0,55.0,29.64,SW,236,0.0,0.0,72,0.00,,,0.00,19,weatherlink.com 1.10,2013-04-19 10:36:00,
2013-04-19 06:51:00,64.3,55.0,29.64,West,264,0.0,0.0,72,0.00,,,0.00,26,weatherlink.com 1.10,2013-04-19 10:51:00,
2013-04-19 07:06:00,64.7,55.0,29.63,WSW,258,0.0,0.0,71,0.00,,,0.00,60,weatherlink.com 1.10,2013-04-19 11:06:00,
2013-04-19 07:21:00,64.9,55.0,29.63,NW,306,0.0,0.0,71,0.00,,,0.00,67,weatherlink.com 1.10,2013-04-19 11:21:00,
2013-04-19 07:36:00,65.3,56.0,29.62,WNW,283,0.0,0.0,71,0.00,,,0.00,105,weatherlink.com 1.10,2013-04-19 11:36:00,
2013-04-19 07:51:00,65.7,56.0,29.62,West,259,0.0,0.0,71,0.00,,,0.00,105,weatherlink.com 1.10,2013-04-19 11:51:00,
2013-04-19 08:06:00,66.0,56.0,29.61,NW,306,0.0,0.0,70,0.00,,,0.00,102,weatherlink.com 1.10,2013-04-19 12:06:00,
2013-04-19 08:21:00,66.3,56.0,29.60,West,273,0.0,0.0,70,0.00,,,0.00,118,weatherlink.com 1.10,2013-04-19 12:21:00,
2013-04-19 08:36:00,67.4,57.0,29.59,WSW,239,0.0,0.0,69,0.00,,,0.00,248,weatherlink.com 1.10,2013-04-19 12:36:00,
2013-04-19 08:53:00,68.6,57.0,29.57,SW,223,0.0,0.0,66,0.00,,,0.00,229,weatherlink.com 1.10,2013-04-19 12:53:00,
2013-04-19 09:06:00,69.0,57.0,29.57,NW,309,0.0,0.0,66,0.00,,,0.00,250,weatherlink.com 1.10,2013-04-19 13:06:00,
2013-04-19 09:21:00,70.0,58.0,29.56,WNW,292,0.0,0.0,65,0.00,,,0.00,608,weatherlink.com 1.10,2013-04-19 13:21:00,
2013-04-19 09:36:00,72.0,57.0,29.56,WNW,289,0.0,0.0,60,0.00,,,0.00,461,weatherlink.com 1.10,2013-04-19 13:36:00,
2013-04-19 09:51:00,71.6,57.0,29.56,NW,304,0.0,0.0,61,0.00,,,0.00,232,weatherlink.com 1.10,2013-04-19 13:51:00,
2013-04-19 10:06:00,72.7,57.0,29.54,WNW,295,0.0,0.0,59,0.00,,,0.00,564,weatherlink.com 1.10,2013-04-19 14:06:00,
2013-04-19 10:21:00,74.4,58.0,29.53,SSW,194,0.0,0.0,57,0.00,,,0.00,621,weatherlink.com 1.10,2013-04-19 14:21:00,
2013-04-19 10:36:00,74.6,58.0,29.52,SW,230,0.0,0.0,56,0.00,,,0.00,628,weatherlink.com 1.10,2013-04-19 14:36:00,
2013-04-19 10:52:00,74.9,58.0,29.52,WSW,252,0.0,0.0,55,0.00,,,0.00,376,weatherlink.com 1.10,2013-04-19 14:52:00,
2013-04-19 11:07:00,74.8,57.0,29.51,NNE,19,0.0,0.0,55,0.00,,,0.00,557,weatherlink.com 1.10,2013-04-19 15:07:00,
2013-04-19 11:22:00,74.8,57.0,29.51,West,263,0.0,0.0,54,0.00,,,0.00,316,weatherlink.com 1.10,2013-04-19 15:22:00,
2013-04-19 11:37:00,74.4,57.0,29.50,West,268,0.0,0.0,55,0.00,,,0.00,346,weatherlink.com 1.10,2013-04-19 15:37:00,
2013-04-19 11:52:00,74.3,56.0,29.48,NW,307,0.0,0.0,54,0.00,,,0.00,308,weatherlink.com 1.10,2013-04-19 15:52:00,
2013-04-19 12:07:00,74.7,56.0,29.47,NW,314,0.0,0.0,53,0.00,,,0.00,431,weatherlink.com 1.10,2013-04-19 16:07:00,
2013-04-19 12:22:00,75.3,56.0,29.46,SSW,209,0.0,0.0,52,0.00,,,0.00,390,weatherlink.com 1.10,2013-04-19 16:22:00,
2013-04-19 12:37:00,75.6,57.0,29.45,WSW,239,0.0,0.0,52,0.00,,,0.00,504,weatherlink.com 1.10,2013-04-19 16:37:00,
2013-04-19 12:52:00,76.2,57.0,29.45,SW,233,0.0,0.0,52,0.00,,,0.00,513,weatherlink.com 1.10,2013-04-19 16:52:00,
2013-04-19 13:07:00,75.7,57.0,29.43,WSW,254,0.0,0.0,52,0.00,,,0.00,350,weatherlink.com 1.10,2013-04-19 17:07:00,
2013-04-19 13:22:00,75.8,56.0,29.43,WSW,256,0.0,0.0,51,0.00,,,0.00,236,weatherlink.com 1.10,2013-04-19 17:22:00,
2013-04-19 13:37:00,75.7,57.0,29.41,West,280,0.0,0.0,52,0.00,,,0.00,230,weatherlink.com 1.10,2013-04-19 17:37:00,
2013-04-19 13:52:00,75.5,56.0,29.41,WNW,298,0.0,0.0,51,0.00,,,0.00,244,weatherlink.com 1.10,2013-04-19 17:52:00,
2013-04-19 14:07:00,75.0,57.0,29.43,West,277,0.0,0.0,53,0.00,,,0.00,58,weatherlink.com 1.10,2013-04-19 18:07:00,
2013-04-19 14:22:00,74.0,58.0,29.42,SSW,198,0.0,0.0,57,0.00,,,0.00,341,weatherlink.com 1.10,2013-04-19 18:22:00,
2013-04-19 14:37:00,73.2,57.0,29.41,WNW,294,0.0,0.0,58,0.00,,,0.00,302,weatherlink.com 1.10,2013-04-19 18:37:00,
2013-04-19 14:52:00,73.8,57.0,29.42,SW,217,0.0,0.0,56,0.00,,,0.00,100,weatherlink.com 1.10,2013-04-19 18:52:00,
2013-04-19 15:07:00,72.6,57.0,29.42,NNW,328,0.0,0.0,59,0.00,,,0.00,142,weatherlink.com 1.10,2013-04-19 19:07:00,
2013-04-19 15:22:00,70.0,59.0,29.39,SSW,201,0.0,0.0,69,0.01,,,0.01,367,weatherlink.com 1.10,2013-04-19 19:22:00,
2013-04-19 15:37:00,69.9,59.0,29.37,NW,305,0.0,0.0,68,0.01,,,0.01,130,weatherlink.com 1.10,2013-04-19 19:37:00,
2013-04-19 15:52:00,68.0,59.0,29.36,WNW,298,0.0,0.0,72,0.02,,,0.02,172,weatherlink.com 1.10,2013-04-19 19:52:00,
2013-04-19 16:09:00,68.1,59.0,29.34,West,277,0.0,0.0,73,0.02,,,0.02,197,weatherlink.com 1.10,2013-04-19 20:09:00,
2013-04-19 16:22:00,69.5,59.0,29.34,West,279,0.0,0.0,70,0.01,,,0.02,316,weatherlink.com 1.10,2013-04-19 20:22:00,
2013-04-19 16:37:00,70.5,59.0,29.30,WNW,282,0.0,0.0,66,0.01,,,0.02,264,weatherlink.com 1.10,2013-04-19 20:37:00,
2013-04-19 16:52:00,70.8,58.0,29.31,WSW,248,0.0,0.0,65,0.00,,,0.02,192,weatherlink.com 1.10,2013-04-19 20:52:00,
2013-04-19 17:07:00,70.7,59.0,29.32,West,275,0.0,0.0,66,0.00,,,0.02,200,weatherlink.com 1.10,2013-04-19 21:07:00,
2013-04-19 17:22:00,71.0,59.0,29.32,West,273,0.0,0.0,65,0.00,,,0.02,128,weatherlink.com 1.10,2013-04-19 21:22:00,
2013-04-19 17:37:00,71.5,59.0,29.32,West,270,0.0,0.0,64,0.00,,,0.02,144,weatherlink.com 1.10,2013-04-19 21:37:00,
2013-04-19 17:52:00,71.8,59.0,29.32,NW,316,0.0,0.0,64,0.00,,,0.02,70,weatherlink.com 1.10,2013-04-19 21:52:00,
2013-04-19 18:07:00,69.0,56.0,29.35,NNE,24,0.0,0.0,64,0.00,,,0.02,18,weatherlink.com 1.10,2013-04-19 22:07:00,
2013-04-19 18:22:00,59.5,53.0,29.40,NW,325,0.0,0.0,80,0.00,,,0.02,9,weatherlink.com 1.10,2013-04-19 22:22:00,
2013-04-19 18:37:00,55.9,49.0,29.44,NE,44,0.0,0.0,77,0.00,,,0.02,5,weatherlink.com 1.10,2013-04-19 22:37:00,
2013-04-19 18:52:00,53.8,48.0,29.45,North,360,0.0,0.0,82,0.01,,,0.03,5,weatherlink.com 1.10,2013-04-19 22:52:00,
2013-04-19 19:07:00,50.8,46.0,29.48,NE,34,0.0,0.0,83,0.01,,,0.03,7,weatherlink.com 1.10,2013-04-19 23:07:00,
2013-04-19 19:22:00,48.6,44.0,29.50,WNW,293,0.0,0.0,85,0.01,,,0.03,5,weatherlink.com 1.10,2013-04-19 23:22:00,
2013-04-19 19:37:00,46.9,43.0,29.51,WNW,293,0.0,0.0,86,0.01,,,0.03,0,weatherlink.com 1.10,2013-04-19 23:37:00,
2013-04-19 19:53:00,45.8,42.0,29.53,East,81,0.0,0.0,86,0.02,,,0.05,0,weatherlink.com 1.10,2013-04-19 23:53:00,
2013-04-19 20:08:00,44.9,42.0,29.54,NNE,19,0.0,0.0,88,0.06,,,0.09,0,weatherlink.com 1.10,2013-04-20 00:08:00,
2013-04-19 20:23:00,44.0,41.0,29.55,NW,320,0.0,0.0,89,0.08,,,0.11,0,weatherlink.com 1.10,2013-04-20 00:23:00,
2013-04-19 20:38:00,43.4,40.0,29.55,NW,319,0.0,0.0,89,0.11,,,0.14,0,weatherlink.com 1.10,2013-04-20 00:38:00,
2013-04-19 20:53:00,43.1,40.0,29.57,NNW,348,0.0,0.0,89,0.11,,,0.16,0,weatherlink.com 1.10,2013-04-20 00:53:00,
2013-04-19 21:08:00,42.8,40.0,29.58,NW,313,0.0,0.0,88,0.07,,,0.16,0,weatherlink.com 1.10,2013-04-20 01:08:00,
2013-04-19 21:23:00,42.5,39.0,29.60,West,275,0.0,0.0,88,0.06,,,0.18,0,weatherlink.com 1.10,2013-04-20 01:23:00,
2013-04-19 21:38:00,42.2,39.0,29.59,NNW,338,0.0,0.0,87,0.04,,,0.18,0,weatherlink.com 1.10,2013-04-20 01:38:00,
2013-04-19 21:53:00,42.2,39.0,29.60,NNW,331,0.0,0.0,87,0.02,,,0.18,0,weatherlink.com 1.10,2013-04-20 01:53:00,
2013-04-19 22:08:00,42.1,38.0,29.60,NE,51,0.0,0.0,85,0.02,,,0.18,0,weatherlink.com 1.10,2013-04-20 02:08:00,
2013-04-19 22:24:00,42.2,38.0,29.61,NE,34,0.0,0.0,84,0.00,,,0.18,0,weatherlink.com 1.10,2013-04-20 02:24:00,
2013-04-19 22:38:00,42.2,37.0,29.61,WNW,297,0.0,0.0,83,0.00,,,0.18,0,weatherlink.com 1.10,2013-04-20 02:38:00,
2013-04-19 22:53:00,42.2,37.0,29.62,NNE,16,0.0,0.0,82,0.00,,,0.18,0,weatherlink.com 1.10,2013-04-20 02:53:00,
2013-04-19 23:08:00,42.2,37.0,29.62,North,10,0.0,0.0,81,0.00,,,0.18,0,weatherlink.com 1.10,2013-04-20 03:08:00,
2013-04-19 23:23:00,42.2,36.0,29.62,NNE,19,0.0,0.0,80,0.00,,,0.18,0,weatherlink.com 1.10,2013-04-20 03:23:00,
2013-04-19 23:38:00,42.2,36.0,29.63,NNW,339,0.0,0.0,79,0.00,,,0.18,0,weatherlink.com 1.10,2013-04-20 03:38:00,
2013-04-19 23:53:00,41.9,36.0,29.63,East,93,0.0,0.0,79,0.00,,,0.18,0,weatherlink.com 1.10,2013-04-20 03:53:00,